User: anonymous   Login
Location: Ab? ar R?sh Ba?r?
(24.1861°N, 32.8847°E)
Time: 11:00:28
(UTC+00:00)
Language:

H-2A R/B - Orbit

View from above orbital plane
View from above orbital plane
View from above satellite
View from above satellite

Ground track
Ground track

The orbit data is extracted from the following two-line orbital elements,

1 38341U 12025E   22275.69116219  .00001462  00000-0  17451-3 0  9996
2 38341  98.4901 138.0262 0055741  62.3027 298.3826 14.84902398561565
Epoch (UTC): 02 October 2022 16:35:16
Eccentricity: 0.0055741
inclination: 98.4901°
perigee height: 575 km
apogee height: 653 km
right ascension of ascending node: 138.0262°
argument of perigee: 62.3027°
revolutions per day: 14.84902398
mean anomaly at epoch: 298.3826°
orbit number at epoch: 56156

The dashed part of the orbit path shows where the satellite is in the earth's shadow,  

DLR